[[{"header":{"parameterUnit":"m.s-1","parameterCategory":1,"la1":30.2991,"la2":30.254,"lo1":-89.0895,"lo2":-89.0444,"dy":0.0017,"dx":0.0017,"nx":28,"ny":28,"refTime":"2025-09-15T21:00:00:Z","depth":0,"parameterNumber":2,"parameterNumberName":"U-component_of_WINDS"},"data":[0,0,0,0,0,0,0,0,0,0,0,0,0,0,0,0,0,0,0,0,0,0,0,0,0,0,0,0,0,0,0,0,0,0,0,0,0,0,0,0,0,0,0,0,0,0,0,0,0,0,0,0,0,0,0,0,0,0,1.3737,1.3737,0,1.3802,1.3803,1.3803,1.3798,1.3797,1.3796,1.3795,1.3861,1.3864,1.3866,0,0,0,0,0,0,0,0,0,0,0,0,0,1.3607,1.3609,1.3737,1.3737,1.3738,1.3802,1.3803,1.3804,1.3798,1.3797,1.3796,1.3795,1.386,1.3863,1.3866,0,0,0,0,0,0,0,0,0,0,0,0,0,1.3667,1.361,1.3736,1.3743,1.3745,1.3802,1.3803,1.3804,1.3799,1.3797,1.3796,1.3794,1.3859,1.3863,1.3867,1.3921,0,0,1.3879,1.3881,0,0,0,0,0,0,0,0,1.3663,1.3671,1.3741,1.3743,1.3744,1.379,1.3781,1.3843,1.3799,1.3778,1.3795,1.3794,1.3839,1.3844,1.386,1.3924,1.3927,1.3879,1.3882,1.3884,1.3885,0,0,0,0,0,0,0,1.3659,1.3669,1.3762,1.3742,1.3744,1.3743,1.375,1.3793,1.3816,1.378,1.378,1.3787,1.3839,1.3856,1.3861,1.3928,1.3879,1.3883,1.3885,1.3887,1.404,1.4042,0,0,0,0,0,0,1.3653,1.3665,1.376,1.3764,1.3699,1.3746,1.3754,1.3777,1.3815,1.382,1.3789,1.3787,1.385,1.3856,1.3863,1.3929,1.3883,1.3887,1.389,1.4038,1.404,1.4042,0,0,0,0,0,0,1.3651,1.3662,1.3758,1.3715,1.3727,1.375,1.3776,1.3779,1.3796,1.3822,1.3826,1.3801,1.3849,1.3858,1.3907,1.3931,1.3889,1.3893,1.4036,1.4039,1.4041,1.4061,0,0,0,0,0,0,1.3647,1.3661,1.3682,1.3715,1.3729,1.38,1.3778,1.3782,1.3803,1.3801,1.3835,1.3839,1.3848,1.3901,1.3911,1.3936,1.3896,1.4034,1.4038,1.4041,1.4058,1.4063,1.4068,0,0,0,0,0,1.3642,1.3684,1.3683,1.3694,1.3756,1.3802,1.3809,1.3819,1.3805,1.3826,1.3843,1.3838,1.3927,1.3906,1.3917,1.3944,1.4033,1.4037,1.404,1.4055,1.4062,1.4068,0,0,0,0,0,0,1.3653,1.3689,1.3688,1.3742,1.3769,1.3801,1.3827,1.3826,1.3857,1.3855,1.3866,1.3873,1.3922,1.3938,1.3914,1.3998,1.3978,1.3984,1.3986,1.3993,1.3998,1.3992,1.3899,0,0,0,0,0,1.3661,1.3696,1.3726,1.377,1.3784,1.3804,1.3824,1.3829,1.3857,1.3869,1.3889,1.3916,1.395,1.3973,1.4005,1.4061,1.4068,1.4085,1.409,1.4094,1.4099,1.4129,1.4137,1.4055,1.4055,1.4055,0,0,1.3679,1.3703,1.3724,1.3773,1.3795,1.383,1.3813,1.3851,1.3877,1.3874,1.3922,1.3938,1.3969,1.4021,1.4045,1.4036,1.4123,1.4099,1.4102,1.4104,1.4133,1.4141,1.4148,1.4057,1.4057,1.4056,0,0,1.373,1.3752,1.3791,1.3814,1.3847,1.3859,1.3869,1.3902,1.3912,1.396,1.3959,1.399,1.4049,1.4071,1.409,1.4151,1.4147,1.4161,1.4188,1.4217,1.4223,1.4229,1.425,1.4257,1.4166,1.4166,1.4166,0,1.3747,1.3801,1.3812,1.385,1.3872,1.3872,1.3912,1.3933,1.3975,1.3989,1.3979,1.4053,1.4074,1.4131,1.4146,1.4161,1.4172,1.4156,1.4222,1.4227,1.4233,1.4253,1.4261,1.4167,1.4167,1.4167,1.4167,0,1.3821,1.3858,1.3886,1.3927,1.3952,1.3991,1.4008,1.4032,1.4035,1.4049,1.4098,1.4124,1.4162,1.4176,1.418,1.4234,1.4227,1.4219,1.4199,1.4242,1.4261,1.4269,1.4169,1.4169,1.4169,1.4168,0,0,1.3878,1.3925,1.3935,1.3954,1.3991,1.402,1.4059,1.4097,1.4117,1.4146,1.4179,1.423,1.4222,1.4244,1.425,1.4276,1.4322,1.4265,1.4266,1.4274,1.4383,1.4388,1.4396,1.4321,1.4322,1.4323,1.438,0,1.3931,1.4001,1.4013,1.4074,1.4108,1.4109,1.4143,1.417,1.4184,1.4215,1.4231,1.4266,1.4254,1.4267,1.4293,1.4311,1.4344,1.4307,1.435,1.4352,1.4341,1.4406,1.4412,1.4464,1.4387,1.4388,1.4389,0,1.4002,1.4034,1.4099,1.4132,1.4146,1.4177,1.4212,1.4242,1.4273,1.4281,1.4306,1.431,1.4351,1.433,1.4386,1.4361,1.4379,1.4391,1.4393,1.4396,1.4372,1.441,1.448,1.4488,1.4401,1.44,1.4399,0,1.4037,1.4096,1.4142,1.4158,1.4198,1.4219,1.4236,1.4265,1.4287,1.4319,1.4333,1.4369,1.4388,1.4415,1.4429,1.4412,1.4484,1.4464,1.4491,1.4491,1.4505,1.4504,1.4578,1.4519,1.4519,1.4519,1.4519,0,1.4094,1.4133,1.4158,1.4186,1.423,1.4243,1.4286,1.4303,1.4329,1.436,1.4364,1.4394,1.441,1.4442,1.4453,1.4497,1.4506,1.4514,1.4516,1.4513,1.4512,1.4524,1.452,1.4521,1.4521,1.452,1.452,0,1.4139,1.4157,1.4207,1.4241,1.4251,1.4281,1.431,1.4338,1.4353,1.4392,1.4403,1.4426,1.4464,1.448,1.4526,1.4534,1.4584,1.4584,1.4574,1.4574,1.46,1.4597,1.4684,1.4696,1.4631,1.4631,1.4632,0,1.4174,1.4204,1.4242,1.4263,1.4281,1.4316,1.4339,1.4354,1.4377,1.4414,1.4437,1.4475,1.4506,1.4566,1.4587,1.4623,1.4623,1.4651,1.4628,1.4624,1.4622,1.462,1.4622,1.4655,1.4655,1.4656,1.4656,0,1.4234,1.4242,1.4274,1.4311,1.4338,1.4367,1.4395,1.4413,1.4432,1.4458,1.4497,1.4521,1.4569,1.4606,1.4644,1.4661,1.4662,1.4664,1.4672,1.4668,1.466,1.4664,1.4584,1.4661,1.4661,1.466,1.466,1.466,1.4274,1.4301,1.4332,1.4368,1.4392,1.4418,1.4446,1.4465,1.4497,1.4537,1.4544,1.4586,1.4615,1.4665,1.4685,1.4717,1.471,1.4722,1.4725,1.4727,1.4728,1.4656,1.4724,1.4724,1.4724,1.4724,1.4723,0,1.4334,1.4354,1.4387,1.4427,1.4456,1.4455,1.4487,1.4511,1.4547,1.4575,1.4606,1.4651,1.4687,1.4711,1.4748,1.477,1.4771,1.4779,1.4776,1.478,1.4733,1.4721,1.4777,1.4777,1.4777,1.4777,1.4777,1.4777,1.4368,1.4413,1.4424,1.4481,1.4501,1.4542,1.456,1.4585,1.4607,1.4657,1.4687,1.4703,1.473,1.4769,1.4802,1.4808,1.4821,1.4829,1.4835,1.479,1.4784,1.4778,1.4768,1.4832,1.4833,1.488,1.4881,1.4881]},{"header":{"parameterUnit":"m.s-1","parameterCategory":1,"la1":30.2991,"la2":30.254,"lo1":-89.0895,"lo2":-89.0444,"dy":0.0017,"dx":0.0017,"nx":28,"ny":28,"refTime":"2025-09-15T21:00:00:Z","depth":0,"parameterNumber":3,"parameterNumberName":"V-component_of_WINDS"},"data":[0,0,0,0,0,0,0,0,0,0,0,0,0,0,0,0,0,0,0,0,0,0,0,0,0,0,0,0,0,0,0,0,0,0,0,0,0,0,0,0,0,0,0,0,0,0,0,0,0,0,0,0,0,0,0,0,0,0,-1.4621,-1.462,0,-1.4564,-1.4564,-1.4563,-1.4532,-1.4532,-1.4532,-1.4532,-1.447,-1.4468,-1.4467,0,0,0,0,0,0,0,0,0,0,0,0,0,-1.4697,-1.4696,-1.4621,-1.462,-1.4619,-1.4564,-1.4564,-1.4563,-1.4532,-1.4532,-1.4532,-1.4532,-1.447,-1.4469,-1.4467,0,0,0,0,0,0,0,0,0,0,0,0,0,-1.4655,-1.4696,-1.4621,-1.4598,-1.4595,-1.4564,-1.4564,-1.4563,-1.4532,-1.4532,-1.4532,-1.4532,-1.4471,-1.4469,-1.4466,-1.4453,0,0,-1.4459,-1.4458,0,0,0,0,0,0,0,0,-1.4657,-1.4652,-1.4602,-1.4599,-1.4596,-1.4555,-1.4568,-1.4526,-1.4532,-1.4556,-1.4532,-1.4532,-1.4498,-1.4493,-1.4483,-1.445,-1.4448,-1.4459,-1.4457,-1.4456,-1.4456,0,0,0,0,0,0,0,-1.466,-1.4654,-1.4598,-1.4601,-1.4598,-1.4588,-1.4582,-1.456,-1.4528,-1.4554,-1.4552,-1.4545,-1.4496,-1.4485,-1.4481,-1.4447,-1.4459,-1.4457,-1.4455,-1.4454,-1.4399,-1.4399,0,0,0,0,0,0,-1.4668,-1.4657,-1.46,-1.4597,-1.4627,-1.4587,-1.458,-1.4568,-1.4528,-1.4522,-1.4546,-1.4544,-1.4489,-1.4484,-1.4479,-1.446,-1.4456,-1.4454,-1.4453,-1.4399,-1.4399,-1.4399,0,0,0,0,0,0,-1.4669,-1.4663,-1.4602,-1.4626,-1.4618,-1.4586,-1.4573,-1.4567,-1.4556,-1.4522,-1.4516,-1.454,-1.4489,-1.4482,-1.446,-1.4457,-1.4453,-1.4451,-1.4399,-1.4399,-1.4399,-1.4423,0,0,0,0,0,0,-1.4672,-1.4664,-1.466,-1.4626,-1.4617,-1.4586,-1.4573,-1.4566,-1.4553,-1.455,-1.4515,-1.451,-1.4489,-1.4464,-1.4457,-1.4454,-1.4449,-1.4399,-1.4399,-1.4399,-1.4422,-1.4424,-1.4425,0,0,0,0,0,-1.4675,-1.4668,-1.466,-1.4653,-1.4611,-1.4586,-1.458,-1.4557,-1.4553,-1.4547,-1.4525,-1.4511,-1.4459,-1.4462,-1.4454,-1.445,-1.4399,-1.4399,-1.4399,-1.4421,-1.4423,-1.4425,0,0,0,0,0,0,-1.4701,-1.4663,-1.4654,-1.4637,-1.4615,-1.4581,-1.4574,-1.456,-1.4538,-1.4537,-1.4508,-1.45,-1.448,-1.4463,-1.4467,-1.4434,-1.4427,-1.4426,-1.4447,-1.4448,-1.445,-1.4454,-1.4447,0,0,0,0,0,-1.4705,-1.4689,-1.4656,-1.4644,-1.4634,-1.4606,-1.4594,-1.4578,-1.4554,-1.4544,-1.452,-1.4496,-1.4474,-1.446,-1.4438,-1.4419,-1.441,-1.4413,-1.4414,-1.4415,-1.4414,-1.4401,-1.4402,-1.4398,-1.4398,-1.4398,0,0,-1.4713,-1.469,-1.4682,-1.4649,-1.463,-1.4613,-1.4598,-1.4581,-1.4567,-1.4541,-1.4519,-1.45,-1.4471,-1.445,-1.4439,-1.4435,-1.4413,-1.4415,-1.4417,-1.4415,-1.4401,-1.4402,-1.4402,-1.4398,-1.4398,-1.4398,0,0,-1.4718,-1.47,-1.4687,-1.4669,-1.4641,-1.4622,-1.4619,-1.4587,-1.4574,-1.4552,-1.4531,-1.4514,-1.4477,-1.4456,-1.4441,-1.4437,-1.4423,-1.4431,-1.4438,-1.4426,-1.4426,-1.4426,-1.4423,-1.4423,-1.443,-1.443,-1.443,0,-1.4731,-1.4705,-1.4682,-1.4666,-1.4651,-1.4628,-1.4614,-1.4597,-1.4563,-1.4552,-1.4548,-1.4501,-1.4479,-1.4452,-1.4452,-1.444,-1.4435,-1.4435,-1.4428,-1.4428,-1.4428,-1.4425,-1.4424,-1.4431,-1.4431,-1.4431,-1.4431,0,-1.4721,-1.4704,-1.4697,-1.4666,-1.465,-1.4635,-1.4608,-1.4595,-1.458,-1.4561,-1.4537,-1.4511,-1.4483,-1.4475,-1.446,-1.4445,-1.4443,-1.4434,-1.4426,-1.4429,-1.4426,-1.4425,-1.4433,-1.4432,-1.4432,-1.4432,0,0,-1.4742,-1.4698,-1.4696,-1.4681,-1.4648,-1.4633,-1.4616,-1.4589,-1.4578,-1.4555,-1.4538,-1.4507,-1.4498,-1.4481,-1.4463,-1.4453,-1.445,-1.4444,-1.4443,-1.4445,-1.443,-1.4437,-1.4436,-1.444,-1.444,-1.4439,-1.4432,0,-1.4742,-1.4712,-1.469,-1.4667,-1.465,-1.4627,-1.4612,-1.4589,-1.4571,-1.4551,-1.453,-1.4508,-1.4498,-1.4488,-1.4476,-1.4453,-1.4446,-1.4453,-1.4423,-1.4422,-1.443,-1.4435,-1.4442,-1.4437,-1.4431,-1.4431,-1.4431,0,-1.4738,-1.4716,-1.4692,-1.466,-1.4652,-1.4639,-1.4612,-1.4595,-1.4568,-1.4555,-1.4535,-1.4517,-1.4496,-1.449,-1.446,-1.4465,-1.4451,-1.4437,-1.4436,-1.4432,-1.4426,-1.443,-1.4435,-1.4434,-1.4429,-1.4429,-1.4429,0,-1.4754,-1.4719,-1.47,-1.4688,-1.465,-1.4641,-1.4625,-1.4598,-1.4583,-1.4559,-1.4548,-1.4522,-1.4507,-1.4486,-1.446,-1.4459,-1.4432,-1.4424,-1.4419,-1.442,-1.4414,-1.4415,-1.4416,-1.4406,-1.4406,-1.4406,-1.4406,0,-1.4755,-1.4741,-1.4706,-1.4695,-1.4677,-1.4652,-1.4635,-1.4617,-1.4593,-1.4575,-1.4553,-1.4537,-1.4505,-1.4484,-1.4464,-1.4441,-1.4434,-1.4422,-1.4417,-1.4424,-1.4425,-1.4414,-1.4413,-1.4406,-1.4406,-1.4406,-1.4406,0,-1.477,-1.4747,-1.4724,-1.4691,-1.4682,-1.4671,-1.4641,-1.4627,-1.4608,-1.4586,-1.4579,-1.4547,-1.4522,-1.4495,-1.4459,-1.4446,-1.4423,-1.4416,-1.4433,-1.443,-1.4426,-1.4426,-1.442,-1.4417,-1.441,-1.441,-1.441,0,-1.4773,-1.4761,-1.4727,-1.4715,-1.4699,-1.4679,-1.4664,-1.4638,-1.4623,-1.459,-1.458,-1.4553,-1.4531,-1.449,-1.4463,-1.4435,-1.4427,-1.4426,-1.4423,-1.443,-1.4426,-1.4427,-1.4425,-1.4428,-1.4428,-1.4428,-1.4428,0,-1.4779,-1.4768,-1.4747,-1.4723,-1.4706,-1.4685,-1.4662,-1.4653,-1.4622,-1.4605,-1.458,-1.4562,-1.4527,-1.45,-1.4469,-1.445,-1.4433,-1.443,-1.4427,-1.4434,-1.4444,-1.4437,-1.4435,-1.443,-1.443,-1.443,-1.4429,-1.4429,-1.4787,-1.4775,-1.4749,-1.4727,-1.4708,-1.4688,-1.4673,-1.4652,-1.4631,-1.4601,-1.4586,-1.456,-1.4531,-1.4488,-1.4469,-1.4447,-1.4442,-1.4439,-1.4437,-1.4437,-1.4438,-1.4448,-1.4442,-1.4441,-1.4441,-1.4441,-1.4441,0,-1.4791,-1.4773,-1.4753,-1.4723,-1.4705,-1.4693,-1.4668,-1.4653,-1.4631,-1.4606,-1.4584,-1.4554,-1.4527,-1.4498,-1.4469,-1.4457,-1.4448,-1.445,-1.445,-1.4446,-1.4445,-1.445,-1.4457,-1.4457,-1.4457,-1.4457,-1.4457,-1.4457,-1.4791,-1.4771,-1.4756,-1.4726,-1.4707,-1.4683,-1.4669,-1.465,-1.463,-1.4598,-1.4576,-1.4557,-1.453,-1.4499,-1.4473,-1.4465,-1.4455,-1.4459,-1.4448,-1.4447,-1.4446,-1.4445,-1.4449,-1.4457,-1.4457,-1.4451,-1.4451,-1.4451]}]]